Buoy 52609

sailwx.info

Track history (hours):
 
Tides and Currents Weather Stations Pressure Air Temp Water Temp Dewpoint Dewpoint Depression Visibility Wind Speed Wind Dir Waves Ship Positions

Drifting buoy 52609

Last reported at 2014-Oct-24 19:00 UTC. Time now 2014-Oct-24 21:29 UTC.
Position N 14°09' E 152°50'.

Water temperature 29.9 ° C

Date/timePositionNaut miles runAvg speedWind from/ knotsBaromVisibWave heightAir tempDewpointWater temp
2014-Oct-24 19:00N 14°09' E 152°50'1 1.5 29.9
2014-Oct-24 18:00N 14°10' E 152°52'0 0.2 29.9
2014-Oct-24 17:00N 14°10' E 152°52'1 0.4 29.9
2014-Oct-24 15:00N 14°10' E 152°52'0 0.0 29.9
2014-Oct-24 14:00N 14°10' E 152°52'3 1.5 29.9
2014-Oct-24 12:00N 14°13' E 152°55'1 1.1 29.9
2014-Oct-24 11:00N 14°12' E 152°56'0 0.0 30.0
2014-Oct-24 10:00N 14°12' E 152°56'1 0.3 30.0
2014-Oct-24 08:00N 14°12' E 152°55'1 0.6 30.1
2014-Oct-24 06:00N 14°12' E 152°56'2 0.8 30.3
2014-Oct-24 04:00N 14°14' E 152°57'0 0.0 30.3
2014-Oct-24 02:00N 14°14' E 152°57'0 0.0 30.2
2014-Oct-24 01:00N 14°14' E 152°57'3 2.5 30.2
2014-Oct-24 00:00N 14°15' E 152°60'0 0.0 30.0
2014-Oct-23 23:00N 14°15' E 152°60'0 0.0 29.9
2014-Oct-23 22:00N 14°15' E 152°60'1 0.2 29.9
2014-Oct-23 19:00N 14°15' E 153°00'2 0.9 29.9
2014-Oct-23 17:00N 14°15' E 153°02'0 0.0 29.9
2014-Oct-23 15:00N 14°15' E 153°02'0 0.0 29.9
2014-Oct-23 14:00N 14°15' E 153°02'2 1.2 30.0
2014-Oct-23 12:00N 14°16' E 153°04'0 0.0 30.0
2014-Oct-23 11:00N 14°16' E 153°04'0 0.0 30.0
2014-Oct-23 10:00N 14°16' E 153°04'1 0.7 30.1
2014-Oct-23 08:00N 14°17' E 153°05'0 0.0 30.2
2014-Oct-23 06:00N 14°17' E 153°05'1 0.5 30.5
2014-Oct-23 04:00N 14°18' E 153°06'1 0.4 32.1
2014-Oct-23 00:00N 14°18' E 153°07'0 0.0 31.0
2014-Oct-22 23:00N 14°18' E 153°07'0 0.0 30.4
2014-Oct-22 22:00N 14°18' E 153°07'0 0.0 30.0
2014-Oct-22 20:00N 14°18' E 153°07'1 0.7 29.9
2014-Oct-22 19:00N 14°19' E 153°08'1 0.4 29.9
2014-Oct-22 17:00N 14°19' E 153°09'3 1.7 30.0
2014-Oct-22 15:00N 14°20' E 153°12'0 0.0 30.0
2014-Oct-22 11:00N 14°20' E 153°12'1 0.9 30.6
2014-Oct-22 10:00N 14°21' E 153°12'0 0.1 31.0
2014-Oct-22 07:00N 14°21' E 153°12'1 0.5 31.9
2014-Oct-22 06:00N 14°22' E 153°13'0 0.0 32.2
2014-Oct-22 05:00N 14°22' E 153°13'0 0.5 32.2
2014-Oct-22 04:00N 14°22' E 153°13'0 0.0 32.1
2014-Oct-22 02:00N 14°22' E 153°13'2 0.5 31.5
2014-Oct-21 23:00N 14°23' E 153°14'1 0.4 30.1
2014-Oct-21 20:00N 14°24' E 153°15'0 0.3 30.0
2014-Oct-21 19:00N 14°24' E 153°15'0 0.4 30.0
2014-Oct-21 18:00N 14°25' E 153°15'3 0.9 30.0
2014-Oct-21 15:00N 14°25' E 153°18'0 0.0 30.1
2014-Oct-21 12:00N 14°25' E 153°18'1 0.9 30.4
2014-Oct-21 11:00N 14°26' E 153°18'1 0.4 30.7
2014-Oct-21 08:00N 14°27' E 153°19'0 0.5 31.1
2014-Oct-21 07:00N 14°28' E 153°19'0 0.1 31.2
2014-Oct-21 05:00N 14°28' E 153°19'1 0.5 32.6
2014-Oct-21 03:00N 14°28' E 153°20'2 0.7 32.2
2014-Oct-21 00:00N 14°29' E 153°22'1 0.7 30.9
2014-Oct-20 23:00N 14°30' E 153°21'1 0.2 30.0
2014-Oct-20 20:00N 14°30' E 153°21'2 1.1 29.6
2014-Oct-20 18:00N 14°31' E 153°23'0 0.0 29.7
2014-Oct-20 17:00N 14°31' E 153°23'1 1.3 29.7
2014-Oct-20 16:00N 14°30' E 153°24'1 0.2 29.8
2014-Oct-20 11:00N 14°31' E 153°25'1 1.5 30.2
2014-Oct-20 10:00N 14°31' E 153°26'1 1.0 30.4
2014-Oct-20 09:00N 14°32' E 153°26'1 0.6 30.4
2014-Oct-20 08:00N 14°32' E 153°26'1 0.9 30.5
2014-Oct-20 07:00N 14°32' E 153°27'0 0.3 30.6
2014-Oct-20 06:00N 14°32' E 153°27'0 0.4 30.8
2014-Oct-20 05:00N 14°33' E 153°28'1 0.6 31.0
2014-Oct-20 04:00N 14°33' E 153°28'2 0.4 31.1
2014-Oct-20 00:00N 14°33' E 153°30'2 1.7 30.4
2014-Oct-19 23:00N 14°34' E 153°31'0 0.0 29.8
2014-Oct-19 22:00N 14°34' E 153°31'0 0.0 29.6
2014-Oct-19 20:00N 14°34' E 153°31'1 0.9 29.6
2014-Oct-19 19:00N 14°34' E 153°32'1 1.4 29.6
2014-Oct-19 18:00N 14°36' E 153°33'0 0.1 29.6
2014-Oct-19 16:00N 14°36' E 153°33'0 0.0 29.6
2014-Oct-19 12:00N 14°36' E 153°33'1 0.7 29.6
2014-Oct-19 10:00N 14°36' E 153°34'1 0.8 29.7
2014-Oct-19 09:00N 14°37' E 153°34'0 0.0 29.8
2014-Oct-19 05:00N 14°37' E 153°34'1 0.4 30.5
2014-Oct-19 03:00N 14°38' E 153°35'1 0.4 31.1
2014-Oct-19 00:00N 14°37' E 153°34'0 0.0 30.4
2014-Oct-18 23:00N 14°37' E 153°34'1 0.6 30.2
2014-Oct-18 22:00N 14°36' E 153°34'2 0.5 29.6
2014-Oct-18 19:00N 14°37' E 153°35'0 0.3 29.5
2014-Oct-18 18:00N 14°37' E 153°35'1 0.7 29.5
2014-Oct-18 16:00N 14°38' E 153°35'0 0.0 29.6
2014-Oct-18 15:00N 14°38' E 153°35'1 0.2 29.6
2014-Oct-18 12:00N 14°39' E 153°35'1 0.7 29.6
2014-Oct-18 11:00N 14°39' E 153°36'1 1.5 29.6
2014-Oct-18 10:00N 14°40' E 153°37'1 0.5 29.6
2014-Oct-18 08:00N 14°41' E 153°38'0 0.0 29.7
2014-Oct-18 07:00N 14°41' E 153°38'1 0.4 29.7
2014-Oct-18 05:00N 14°41' E 153°38'2 1.5 29.7
2014-Oct-18 04:00N 14°43' E 153°39'0 0.0 29.7
2014-Oct-18 03:00N 14°43' E 153°39'3 1.0 29.6
2014-Oct-18 00:00N 14°46' E 153°39'0 0.0 29.5
2014-Oct-17 23:00N 14°46' E 153°39'1 1.3 29.5
2014-Oct-17 22:00N 14°47' E 153°39'1 0.2 29.5
2014-Oct-17 19:00N 14°48' E 153°39'1 0.4 29.5
2014-Oct-17 16:00N 14°49' E 153°39'1 1.2 29.5
2014-Oct-17 15:00N 14°50' E 153°39'0 0.0 29.5
2014-Oct-17 14:00N 14°50' E 153°39'2 0.8 29.5
2014-Oct-17 11:00N 14°53' E 153°39'1 0.3 29.5
2014-Oct-17 08:00N 14°54' E 153°39'1 0.7 29.6
2014-Oct-17 07:00N 14°54' E 153°39'1 0.5 29.6
2014-Oct-17 06:00N 14°54' E 153°39'0 0.0 29.6
2014-Oct-17 04:00N 14°54' E 153°39'1 0.2 29.6
2014-Oct-17 00:00N 14°54' E 153°40'4 4.1 29.5
2014-Oct-16 23:00N 14°53' E 153°44'0 0.0 29.5
2014-Oct-16 20:00N 14°53' E 153°44'0 0.0 29.5
2014-Oct-16 19:00N 14°53' E 153°44'7 0.7 29.5
2014-Oct-16 09:00N 14°57' E 153°50'2 0.8 29.6
2014-Oct-16 06:00N 14°57' E 153°52'0 0.0 29.7
2014-Oct-16 05:00N 14°57' E 153°52'1 0.2 29.8
2014-Oct-15 23:00N 14°57' E 153°53'2 0.4 29.7
2014-Oct-15 17:00N 14°58' E 153°55'1 0.7 29.6
2014-Oct-15 16:00N 14°58' E 153°55'0 0.0 29.7
2014-Oct-15 15:00N 14°58' E 153°55'2 0.3 29.7
2014-Oct-15 10:00N 14°58' E 153°57'1 0.2 29.7
2014-Oct-15 06:00N 14°59' E 153°56'1 0.6 29.9
2014-Oct-15 04:00N 14°60' E 153°55'0 0.0 29.9
2014-Oct-15 02:00N 14°60' E 153°55'0 0.2 29.9
2014-Oct-15 00:00N 15°00' E 153°55'1 0.5 29.7
2014-Oct-14 22:00N 15°00' E 153°56'2 0.6 29.6
2014-Oct-14 19:00N 15°01' E 153°58'   29.6
Track history (hours):
 
Tides and Currents Weather Stations Pressure Air Temp Water Temp Dewpoint Dewpoint Depression Visibility Wind Speed Wind Dir Waves Ship Positions

Drifting buoy 52609

Last reported at 2014-Oct-24 19:00 UTC. Time now 2014-Oct-24 21:29 UTC.
Position N 14°09' E 152°50'.

Water temperature 29.9 ° C

Date/timePositionNaut miles runAvg speedWind from/ knotsBaromVisibWave heightAir tempDewpointWater temp
2014-Oct-24 19:00N 14°09' E 152°50'1 1.5 29.9
2014-Oct-24 18:00N 14°10' E 152°52'0 0.2 29.9
2014-Oct-24 17:00N 14°10' E 152°52'1 0.4 29.9
2014-Oct-24 15:00N 14°10' E 152°52'0 0.0 29.9
2014-Oct-24 14:00N 14°10' E 152°52'3 1.5 29.9
2014-Oct-24 12:00N 14°13' E 152°55'1 1.1 29.9
2014-Oct-24 11:00N 14°12' E 152°56'0 0.0 30.0
2014-Oct-24 10:00N 14°12' E 152°56'1 0.3 30.0
2014-Oct-24 08:00N 14°12' E 152°55'1 0.6 30.1
2014-Oct-24 06:00N 14°12' E 152°56'2 0.8 30.3
2014-Oct-24 04:00N 14°14' E 152°57'0 0.0 30.3
2014-Oct-24 02:00N 14°14' E 152°57'0 0.0 30.2
2014-Oct-24 01:00N 14°14' E 152°57'3 2.5 30.2
2014-Oct-24 00:00N 14°15' E 152°60'0 0.0 30.0
2014-Oct-23 23:00N 14°15' E 152°60'0 0.0 29.9
2014-Oct-23 22:00N 14°15' E 152°60'1 0.2 29.9
2014-Oct-23 19:00N 14°15' E 153°00'2 0.9 29.9
2014-Oct-23 17:00N 14°15' E 153°02'0 0.0 29.9
2014-Oct-23 15:00N 14°15' E 153°02'0 0.0 29.9
2014-Oct-23 14:00N 14°15' E 153°02'2 1.2 30.0
2014-Oct-23 12:00N 14°16' E 153°04'0 0.0 30.0
2014-Oct-23 11:00N 14°16' E 153°04'0 0.0 30.0
2014-Oct-23 10:00N 14°16' E 153°04'1 0.7 30.1
2014-Oct-23 08:00N 14°17' E 153°05'0 0.0 30.2
2014-Oct-23 06:00N 14°17' E 153°05'1 0.5 30.5
2014-Oct-23 04:00N 14°18' E 153°06'1 0.4 32.1
2014-Oct-23 00:00N 14°18' E 153°07'0 0.0 31.0
2014-Oct-22 23:00N 14°18' E 153°07'0 0.0 30.4
2014-Oct-22 22:00N 14°18' E 153°07'0 0.0 30.0
2014-Oct-22 20:00N 14°18' E 153°07'1 0.7 29.9
2014-Oct-22 19:00N 14°19' E 153°08'1 0.4 29.9
2014-Oct-22 17:00N 14°19' E 153°09'3 1.7 30.0
2014-Oct-22 15:00N 14°20' E 153°12'0 0.0 30.0
2014-Oct-22 11:00N 14°20' E 153°12'1 0.9 30.6
2014-Oct-22 10:00N 14°21' E 153°12'0 0.1 31.0
2014-Oct-22 07:00N 14°21' E 153°12'1 0.5 31.9
2014-Oct-22 06:00N 14°22' E 153°13'0 0.0 32.2
2014-Oct-22 05:00N 14°22' E 153°13'0 0.5 32.2
2014-Oct-22 04:00N 14°22' E 153°13'0 0.0 32.1
2014-Oct-22 02:00N 14°22' E 153°13'2 0.5 31.5
2014-Oct-21 23:00N 14°23' E 153°14'1 0.4 30.1
2014-Oct-21 20:00N 14°24' E 153°15'0 0.3 30.0
2014-Oct-21 19:00N 14°24' E 153°15'0 0.4 30.0
2014-Oct-21 18:00N 14°25' E 153°15'3 0.9 30.0
2014-Oct-21 15:00N 14°25' E 153°18'0 0.0 30.1
2014-Oct-21 12:00N 14°25' E 153°18'1 0.9 30.4
2014-Oct-21 11:00N 14°26' E 153°18'1 0.4 30.7
2014-Oct-21 08:00N 14°27' E 153°19'0 0.5 31.1
2014-Oct-21 07:00N 14°28' E 153°19'0 0.1 31.2
2014-Oct-21 05:00N 14°28' E 153°19'1 0.5 32.6
2014-Oct-21 03:00N 14°28' E 153°20'2 0.7 32.2
2014-Oct-21 00:00N 14°29' E 153°22'1 0.7 30.9
2014-Oct-20 23:00N 14°30' E 153°21'1 0.2 30.0
2014-Oct-20 20:00N 14°30' E 153°21'2 1.1 29.6
2014-Oct-20 18:00N 14°31' E 153°23'0 0.0 29.7
2014-Oct-20 17:00N 14°31' E 153°23'1 1.3 29.7
2014-Oct-20 16:00N 14°30' E 153°24'1 0.2 29.8
2014-Oct-20 11:00N 14°31' E 153°25'1 1.5 30.2
2014-Oct-20 10:00N 14°31' E 153°26'1 1.0 30.4
2014-Oct-20 09:00N 14°32' E 153°26'1 0.6 30.4
2014-Oct-20 08:00N 14°32' E 153°26'1 0.9 30.5
2014-Oct-20 07:00N 14°32' E 153°27'0 0.3 30.6
2014-Oct-20 06:00N 14°32' E 153°27'0 0.4 30.8
2014-Oct-20 05:00N 14°33' E 153°28'1 0.6 31.0
2014-Oct-20 04:00N 14°33' E 153°28'2 0.4 31.1
2014-Oct-20 00:00N 14°33' E 153°30'2 1.7 30.4
2014-Oct-19 23:00N 14°34' E 153°31'0 0.0 29.8
2014-Oct-19 22:00N 14°34' E 153°31'0 0.0 29.6
2014-Oct-19 20:00N 14°34' E 153°31'1 0.9 29.6
2014-Oct-19 19:00N 14°34' E 153°32'1 1.4 29.6
2014-Oct-19 18:00N 14°36' E 153°33'0 0.1 29.6
2014-Oct-19 16:00N 14°36' E 153°33'0 0.0 29.6
2014-Oct-19 12:00N 14°36' E 153°33'1 0.7 29.6
2014-Oct-19 10:00N 14°36' E 153°34'1 0.8 29.7
2014-Oct-19 09:00N 14°37' E 153°34'0 0.0 29.8
2014-Oct-19 05:00N 14°37' E 153°34'1 0.4 30.5
2014-Oct-19 03:00N 14°38' E 153°35'1 0.4 31.1
2014-Oct-19 00:00N 14°37' E 153°34'0 0.0 30.4
2014-Oct-18 23:00N 14°37' E 153°34'1 0.6 30.2
2014-Oct-18 22:00N 14°36' E 153°34'2 0.5 29.6
2014-Oct-18 19:00N 14°37' E 153°35'0 0.3 29.5
2014-Oct-18 18:00N 14°37' E 153°35'1 0.7 29.5
2014-Oct-18 16:00N 14°38' E 153°35'0 0.0 29.6
2014-Oct-18 15:00N 14°38' E 153°35'1 0.2 29.6
2014-Oct-18 12:00N 14°39' E 153°35'1 0.7 29.6
2014-Oct-18 11:00N 14°39' E 153°36'1 1.5 29.6
2014-Oct-18 10:00N 14°40' E 153°37'1 0.5 29.6
2014-Oct-18 08:00N 14°41' E 153°38'0 0.0 29.7
2014-Oct-18 07:00N 14°41' E 153°38'1 0.4 29.7
2014-Oct-18 05:00N 14°41' E 153°38'2 1.5 29.7
2014-Oct-18 04:00N 14°43' E 153°39'0 0.0 29.7
2014-Oct-18 03:00N 14°43' E 153°39'3 1.0 29.6
2014-Oct-18 00:00N 14°46' E 153°39'0 0.0 29.5
2014-Oct-17 23:00N 14°46' E 153°39'1 1.3 29.5
2014-Oct-17 22:00N 14°47' E 153°39'1 0.2 29.5
2014-Oct-17 19:00N 14°48' E 153°39'1 0.4 29.5
2014-Oct-17 16:00N 14°49' E 153°39'1 1.2 29.5
2014-Oct-17 15:00N 14°50' E 153°39'0 0.0 29.5
2014-Oct-17 14:00N 14°50' E 153°39'2 0.8 29.5
2014-Oct-17 11:00N 14°53' E 153°39'1 0.3 29.5
2014-Oct-17 08:00N 14°54' E 153°39'1 0.7 29.6
2014-Oct-17 07:00N 14°54' E 153°39'1 0.5 29.6
2014-Oct-17 06:00N 14°54' E 153°39'0 0.0 29.6
2014-Oct-17 04:00N 14°54' E 153°39'1 0.2 29.6
2014-Oct-17 00:00N 14°54' E 153°40'4 4.1 29.5
2014-Oct-16 23:00N 14°53' E 153°44'0 0.0 29.5
2014-Oct-16 20:00N 14°53' E 153°44'0 0.0 29.5
2014-Oct-16 19:00N 14°53' E 153°44'7 0.7 29.5
2014-Oct-16 09:00N 14°57' E 153°50'2 0.8 29.6
2014-Oct-16 06:00N 14°57' E 153°52'0 0.0 29.7
2014-Oct-16 05:00N 14°57' E 153°52'1 0.2 29.8
2014-Oct-15 23:00N 14°57' E 153°53'2 0.4 29.7
2014-Oct-15 17:00N 14°58' E 153°55'1 0.7 29.6
2014-Oct-15 16:00N 14°58' E 153°55'0 0.0 29.7
2014-Oct-15 15:00N 14°58' E 153°55'2 0.3 29.7
2014-Oct-15 10:00N 14°58' E 153°57'1 0.2 29.7
2014-Oct-15 06:00N 14°59' E 153°56'1 0.6 29.9
2014-Oct-15 04:00N 14°60' E 153°55'0 0.0 29.9
2014-Oct-15 02:00N 14°60' E 153°55'0 0.2 29.9
2014-Oct-15 00:00N 15°00' E 153°55'1 0.5 29.7
2014-Oct-14 22:00N 15°00' E 153°56'2 0.6 29.6
2014-Oct-14 19:00N 15°01' E 153°58'   29.6

Dump ship's entire track history